Location: Unnamed
(53.9021°N, 27.5568°E)
Time: 17:59:39
(UTC+03:00)

STARLINK-73 - Pass Details

Date: 19 January 2020
Orbit: 528 x 531 km, 53.0° (Epoch: 25 February)

Event Time Altitude Azimuth Distance (km) Brightness Sun altitude
Rises 08:19:58 0° 227° (SW) 2,662 6.9 -8.1°
Reaches altitude 10° 08:22:16 10° 219° (SW) 1,775 6.1 -7.7°
Maximum altitude 08:25:59 37° 152° (SSE) 834 5.1 -7.2°
Drops below altitude 10° 08:29:44 10° 84° (E) 1,784 7.3 -6.7°
Sets 08:32:04 0° 76° (ENE) 2,677 8.0 -6.4°
